This is the latest recevied weather packets stored in our database for station/object N8WJW. If no packets are shown the sender has not sent any weather packets the latest 10 day(s).
| Time | Temp. | Humidity | Pressure | Rain* | Wind** | Luminosity | Snow |
|---|---|---|---|---|---|---|---|
| 1778191418 | 12.78° C | 47% | 1013.4 hPa | 0 mm | - | 280 W/m² | - |
| 1778191114 | 13.33° C | 52% | 1012.9 hPa | 0 mm | - | 299 W/m² | - |
| 1778190811 | 13.33° C | 49% | 1013.1 hPa | 0 mm | - | 319 W/m² | - |
| 1778190508 | 12.78° C | 49% | 1013 hPa | 0 mm | - | 339 W/m² | - |
| 1778190206 | 13.33° C | 50% | 1013.1 hPa | 0 mm | - | 355 W/m² | - |
| 1778189900 | 13.33° C | 50% | 1012.9 hPa | 0 mm | - | 386 W/m² | - |
| 1778189598 | 12.78° C | 52% | 1012.9 hPa | 0 mm | - | 409 W/m² | - |
| 1778189295 | 12.78° C | 50% | 1013 hPa | 0 mm | - | 449 W/m² | - |
| 1778188991 | 12.78° C | 54% | 1012.9 hPa | 0 mm | - | 479 W/m² | - |
| 1778188687 | 12.22° C | 54% | 1012.8 hPa | 0 mm | - | 491 W/m² | - |
| 1778188384 | 11.11° C | 57% | 1013 hPa | 0 mm | - | 162 W/m² | - |
| 1778188081 | 11.11° C | 58% | 1012.8 hPa | 0 mm | - | 135 W/m² | - |
| 1778187777 | 11.11° C | 56% | 1012.7 hPa | 0 mm | - | 150 W/m² | - |
| 1778187474 | 11.11° C | 61% | 1012.9 hPa | 0 mm | - | 172 W/m² | - |
| 1778187171 | 10.56° C | 57% | 1012.8 hPa | 0 mm | - | 130 W/m² | - |
| 1778186867 | 10.56° C | 60% | 1012.8 hPa | 0 mm | - | 68 W/m² | - |
| 1778186565 | 10.56° C | 58% | 1012.8 hPa | 0 mm | - | 64 W/m² | - |
| 1778186262 | 11.11° C | 58% | 1012.8 hPa | 0 mm | - | 45 W/m² | - |
| 1778185960 | 11.11° C | 56% | 1012.8 hPa | 0 mm | - | 77 W/m² | - |
| 1778185656 | 11.67° C | 56% | 1012.8 hPa | 0 mm | - | 110 W/m² | - |
| 1778185352 | 12.22° C | 52% | 1012.6 hPa | 0.51 mm | - | 210 W/m² | - |
| 1778185046 | 12.22° C | 52% | 1012.7 hPa | 0 mm | - | 192 W/m² | - |
| 1778184744 | 13.89° C | 56% | 1012.5 hPa | 0 mm | - | 640 W/m² | - |
| 1778184435 | 12.78° C | 53% | 1012.6 hPa | 0 mm | - | 675 W/m² | - |
| 1778184131 | 13.33° C | 52% | 1012.5 hPa | 0 mm | - | 153 W/m² | - |
* Rain latest hour (hover to see other rain measurements)
** Current wind speed in m/s (hover to see current wind gust speed)